Location: Alpha Ridge Park
(39.3209°N, 76.9128°W)
Time: 13:47:26
(UTC-04:00)

Vanguard 2 Rocket - Pass Details

Date: 22 May 2019
Orbit: 554 x 3326 km, 32.9° (Epoch: 19 June)

Event Time Altitude Azimuth Distance (km) Brightness Sun altitude
Rises 04:03:34 0° 198° (SSW) 7,270 - -17.1°
Exits shadow 04:07:32 - 191° (S) 6,679 10.8 -16.6°
Reaches altitude 10° 04:10:27 10° 185° (S) 6,266 10.7 -16.2°
Maximum altitude 04:23:20 22° 144° (SE) 4,943 10.5 -14.4°
Drops below altitude 10° 04:34:02 10° 102° (ESE) 5,174 11.3 -12.8°
Sets 04:38:46 0° 88° (E) 5,755 11.9 -12.1°
